Miscellaneous Local Product
Issued by NWS Hastings, NE

Home | Current Version | Previous Version | Graphics & Text | Print | Product List | Glossary On
Versions: 1 2 3 4 5 6 7 8 9 10 11 12 13 14 15 16 17 18 19 20 21 22 23 24 25 26 27 28 29 30 31 32 33 34 35 36 37 38 39 40 41 42 43 44 45 46 47 48 49 50
000
AXUS43 KGID 241902
MISGRI

GID CWA HOURLY WEATHER ROUNDUP
NATIONAL WEATHER SERVICE HASTINGS NE
100 PM CST TUE FEB 24 2015

NOTE: "FAIR" INDICATES FEW OR NO CLOUDS BELOW 12,000 FEET WITH NO
SIGNIFICANT WEATHER AND/OR OBSTRUCTIONS TO VISIBILITY.

...SOUTH CENTRAL NEBRASKA...

CITY           SKY/WX    TMP DP  RH WIND       PRES   REMARKS
GRAND ISLAND   SUNNY     47  23  38 N18       29.99F
HASTINGS       SUNNY     48  20  32 N16G22    29.99F
KEARNEY        SUNNY     48  19  32 N14       30.00F
ORD            SUNNY     46  21  37 NW16G23   29.97F
YORK           SUNNY     46  25  42 N13G22    29.98F
AURORA         SUNNY     47  23  38 N16G24    29.98F
LEXINGTON      SUNNY     50  21  31 N16       30.00F
HOLDREGE       SUNNY     49  19  30 N10G20    30.00F
HEBRON         SUNNY     47  21  36 N10G16    30.00F

...NEBRASKA PANHANDLE...

CITY           SKY/WX    TMP DP  RH WIND       PRES   REMARKS
CHADRON        SUNNY     49  26  41 NW16      29.98F
ALLIANCE       PTSUNNY   48  24  39 W17       29.98F
SCOTTSBLUFF    SUNNY     49  19  30 W15G24    30.01F
SIDNEY         SUNNY     45  24  43 NW14G24   30.04F

...WESTERN AND NORTH CENTRAL NEBRASKA...

CITY           SKY/WX    TMP DP  RH WIND       PRES   REMARKS
VALENTINE      SUNNY     45  24  43 W7        29.95F
AINSWORTH      SUNNY     44  22  42 NW10G17   29.96F
ONEILL         PTSUNNY   44  24  45 NW12      29.96F
BROKEN BOW     SUNNY     48  22  35 N17G23    29.98F
IMPERIAL         N/A     44  28  53 NW12      30.04F
NORTH PLATTE   SUNNY     51  23  33 NW12      30.00F
MCCOOK         SUNNY     51  27  39 N16       30.03F

...EASTERN NEBRASKA...

CITY           SKY/WX    TMP DP  RH WIND       PRES   REMARKS
NORFOLK        MOSUNNY   46  22  38 NW25      29.94F
SO SIOUX CITY  MOSUNNY   44  21  40 N24G35    29.92F
TEKAMAH        PTSUNNY   46  23  40 N21       29.95F
COLUMBUS       SUNNY     46  23  39 N21G28    29.98F
ALBION         SUNNY     46  21  37 N21       29.96F
OMAHA EPPLEY   MOSUNNY   45  23  42 NW23G29   29.94F
OFFUTT AFB     MOSUNNY   45  23  41 NW20G29   29.95F
MILLARD        PTSUNNY   45  24  43 NW18      29.96F
LINCOLN        SUNNY     47  23  38 N15G21    29.99F
NEBRASKA CITY  SUNNY     43  18  36 NW15G25   29.97F
BEATRICE       SUNNY     44  23  43 NW15      29.99F
FALLS CITY     SUNNY     44  21  40 NW14G22   29.98F

...NORTHERN KANSAS...

CITY           SKY/WX    TMP DP  RH WIND       PRES   REMARKS
GOODLAND       SUNNY     36  27  69 NW15      30.07F WCI  27
HILL CITY      SUNNY     46  27  47 N15       30.05F
NORTON         CLEAR     48  21  34 NW13G24   30.02
PHILLIPSBURG   SUNNY     52  21  30 N13G21    30.03F
SMITH CENTER   SUNNY     48  19  32 N16       30.02F
BELOIT         SUNNY     48  21  34 N5        30.01F
HAYS           SUNNY     46  23  39 NW16G22   30.04F
RUSSELL        SUNNY     49  24  37 NW13      30.02F
CONCORDIA      SUNNY     49  23  36 N17G23    30.00F
SALINA         SUNNY     49  21  33 NW14G20   30.04F
TOPEKA         SUNNY     40  18  41 W8        30.03F WCI  34



USA.gov is the U.S. government's official web portal to all federal, state and local government web resources and services.